Wind_Speed
8 8 8 8 8 8 8 9 9 10 12 13 14 14 14 14 15 17 17 17 17 18 20 22 21 21 23 24 24 23 25 27 27 27 28 28 29 30 30 30 28 28
7 8 8 8 10 12 12 12 12 13 13 15 17 18 18 18 19 19 20 20 21 22 23 24 23 22 23 25 26 26 27 28 28 29 30 30 31 32 33 33 32 32
7 8 9 9 10 12 13 13 14 15 15 17 19 20 21 21 22 22 23 25 25 24 25 26 27 26 25 26 26 27 29 31 32 32 32 31 31 33 34 33 33 34
8 9 10 11 11 12 13 15 16 17 18 18 19 20 21 22 23 23 24 26 26 24 24 25 27 28 28 28 28 28 29 31 33 35 36 36 34 35 37 36 35 34
10 10 11 12 12 14 17 17 18 19 20 21 21 22 22 22 23 25 26 28 30 29 27 27 28 28 29 30 31 32 32 32 33 35 37 38 37 37 38 39 39 38
10 11 12 13 14 17 19 20 20 21 23 24 25 26 26 25 24 25 27 29 32 33 31 31 30 30 30 30 30 32 34 35 34 34 34 35 36 37 38 39 40 40
10 10 12 15 17 19 21 21 22 23 25 26 26 28 29 28 27 27 27 27 30 33 33 33 32 31 31 31 31 33 34 35 36 36 36 37 37 36 37 38 40 41
11 12 13 16 19 21 23 24 24 25 26 27 27 28 29 31 32 31 30 28 29 32 33 33 33 33 33 33 33 34 35 36 38 39 40 39 38 38 38 39 41 42
12 13 15 17 20 22 25 26 26 26 28 30 30 28 28 31 33 33 32 31 32 33 33 34 34 34 34 35 35 36 37 38 39 41 41 40 41 42 42 43 44 44
13 15 17 19 21 22 25 28 29 30 31 34 35 34 33 33 34 34 34 34 35 35 34 35 36 35 36 37 37 36 37 39 40 41 42 43 46 47 47 47 48 48
15 17 18 20 22 24 26 29 32 34 36 38 40 40 39 38 37 36 35 36 37 36 36 37 38 39 39 39 39 38 39 40 41 43 45 47 49 50 50 50 50 50
16 18 20 21 24 26 29 31 34 36 38 40 41 41 41 41 39 38 37 37 38 38 39 40 42 43 42 41 41 42 42 44 45 47 48 49 50 50 50 50 50 51
16 18 21 22 25 28 31 33 36 38 39 40 41 41 41 41 40 39 38 38 39 41 42 44 45 45 44 43 44 45 46 47 48 48 49 49 50 50 51 51 52 52
17 19 21 24 27 29 32 34 36 39 41 41 42 41 41 40 40 40 39 40 41 43 44 46 47 46 45 45 46 47 47 48 48 49 49 49 50 51 52 52 53 53
18 20 23 26 29 31 32 35 37 39 41 42 42 41 41 40 40 40 41 42 43 44 46 46 46 45 45 45 45 46 47 47 48 49 49 50 50 50 51 51 52 52
20 23 26 28 30 32 34 36 38 40 41 41 41 40 40 40 40 41 42 43 44 45 46 46 45 44 44 43 44 45 47 48 49 49 50 50 49 49 49 49 51 52
22 25 27 30 31 33 35 38 40 41 41 40 39 39 39 40 40 41 42 43 44 45 45 43 42 42 43 44 45 47 48 49 49 49 48 47 47 47 47 48 49 51
23 26 29 31 33 35 37 39 40 41 40 39 39 39 39 40 41 42 42 43 43 43 41 40 40 42 44 45 47 48 48 48 47 45 45 45 46 46 47 49 49 50
25 27 30 32 34 36 38 40 41 40 39 38 39 40 41 42 42 42 42 41 40 40 39 39 41 44 45 46 47 47 46 44 42 42 44 45 45 46 47 49 49 48
26 29 31 33 36 38 39 41 41 39 39 39 40 41 42 43 42 41 39 37 37 38 39 40 42 44 45 46 46 44 42 40 41 43 44 44 45 46 46 45 44 43
28 31 33 35 37 39 40 41 40 39 39 39 41 42 42 41 39 37 36 36 37 39 41 41 42 44 45 45 43 41 39 40 43 44 44 44 44 43 41 39 39 39
30 33 35 37 39 41 41 41 40 39 39 40 41 42 41 39 36 35 35 37 39 41 42 43 43 44 44 43 40 39 39 41 43 43 43 42 40 38 36 36 36 36
32 35 36 38 41 42 42 41 40 40 40 41 41 40 38 37 36 36 37 39 41 42 42 43 44 43 42 40 38 38 40 42 42 42 41 38 35 34 34 33 33 32
34 36 38 40 42 43 42 41 41 41 41 41 39 38 37 36 37 38 39 40 41 42 42 43 43 41 39 38 38 39 39 40 40 38 35 32 31 32 32 30 29 29
36 38 40 42 44 44 42 42 42 42 41 40 38 37 37 37 38 40 41 41 41 41 42 42 41 39 38 37 38 38 37 37 35 33 31 29 29 29 29 29 28 27
39 41 42 44 44 44 43 43 43 42 41 39 37 37 37 38 40 40 41 40 40 41 41 40 39 38 37 36 36 36 34 33 31 30 28 26 26 27 28 29 27 25
Wind_Direction
2 359 354 343 332 326 322 319 326 339 343 338 334 331 330 331 332 332 330 326 324 324 325 325 324 322 318 315 313 312 314 315 314 312 310 308 306 303 301 300 300 301
8 10 9 3 351 341 335 333 338 348 348 339 333 332 335 339 339 334 327 323 325 328 327 324 320 316 314 313 312 311 311 311 307 303 301 301 302 302 300 300 301 302
3 6 360 357 351 339 332 334 341 346 345 339 336 336 338 340 339 336 332 328 329 330 328 326 323 321 321 318 314 311 309 306 302 298 298 300 303 303 302 301 301 300
356 355 345 343 342 330 326 336 342 342 341 339 337 337 337 337 334 332 330 325 323 324 325 325 324 323 323 321 317 314 310 306 303 302 302 303 305 304 302 301 299 296
348 343 338 338 338 332 333 341 345 344 341 337 335 335 334 333 331 328 327 324 321 323 325 323 322 320 320 319 316 314 312 311 310 309 308 308 307 305 303 302 301 299
347 342 338 341 343 340 341 347 348 345 343 338 336 335 332 330 328 324 324 322 320 322 324 323 321 319 318 317 313 311 311 311 311 309 308 307 305 304 304 304 303 302
347 345 343 345 347 344 344 349 349 344 341 339 336 334 330 328 328 325 324 323 321 322 322 321 320 317 315 314 311 310 309 307 307 305 303 302 301 300 300 300 299 299
344 347 347 348 347 344 342 347 350 345 340 338 337 336 332 329 329 329 329 327 323 321 320 318 318 316 313 311 309 309 308 307 307 305 303 302 301 300 299 297 296 296
339 342 344 344 345 344 340 341 345 343 339 337 336 337 333 329 328 329 329 326 322 321 319 318 316 315 313 310 309 309 309 308 308 307 305 304 301 299 298 297 296 296
333 336 339 340 341 341 339 338 337 335 335 335 334 333 331 327 327 327 326 323 321 321 319 317 316 315 312 310 310 310 309 307 306 304 303 302 300 299 299 299 300 300
328 330 333 334 333 335 335 336 336 333 333 334 333 332 330 328 327 326 324 322 320 319 317 316 315 313 312 311 310 310 307 305 303 302 302 301 302 302 303 304 303 301
325 325 326 329 331 332 333 335 336 335 334 334 333 332 330 329 328 326 323 321 319 318 316 315 313 312 311 311 309 308 307 306 304 303 303 303 304 304 304 303 301 299
322 324 327 331 334 335 334 333 333 333 333 333 332 331 329 327 325 324 322 320 318 317 315 313 312 311 311 310 309 308 308 306 305 304 304 304 305 305 303 301 300 298
322 328 333 336 337 336 334 333 333 333 333 332 331 329 328 325 323 322 320 318 316 315 314 313 312 312 311 309 309 308 306 305 305 305 305 305 305 304 302 301 300 299
328 333 337 338 337 335 333 332 332 332 332 330 329 327 326 324 323 321 319 317 315 314 313 312 311 310 309 308 307 306 305 305 305 306 306 305 304 303 302 301 300 299
334 336 337 336 334 332 330 330 331 331 330 328 326 325 324 322 321 319 316 314 313 311 310 310 309 308 308 308 307 306 306 307 307 307 306 305 303 302 301 300 299 298
336 335 334 333 331 329 328 329 330 330 328 327 325 323 321 319 316 314 312 310 309 308 308 309 308 308 309 309 309 309 309 309 308 306 304 303 302 302 301 300 300 298
334 333 330 329 328 327 327 328 329 329 327 325 324 322 319 316 313 312 310 309 308 307 308 309 309 310 311 311 310 309 308 307 305 304 303 304 304 304 304 303 302 301
331 329 327 326 326 326 326 327 328 327 325 324 322 320 318 315 313 312 311 309 308 307 308 310 311 311 311 310 308 307 306 305 305 305 306 307 307 306 306 305 304 303
327 326 325 325 324 324 325 326 326 325 323 322 321 320 318 316 315 313 311 309 309 309 310 311 311 311 310 309 308 308 307 308 308 309 309 308 307 307 306 305 305 304
324 324 324 324 322 323 325 326 325 323 322 321 321 320 318 317 315 313 311 311 311 311 312 312 312 312 311 310 310 310 310 310 310 310 309 308 307 307 306 305 306 306
322 322 322 322 321 323 325 325 323 322 321 321 321 319 317 316 315 313 312 313 314 314 314 314 314 314 312 311 312 311 311 310 310 310 308 308 308 308 309 309 309 308
319 320 319 319 321 323 324 323 323 322 321 321 320 318 316 315 315 314 315 316 316 316 316 315 315 314 313 313 313 312 311 310 310 308 308 309 311 313 314 314 312 311
316 317 317 317 320 322 323 323 322 322 321 320 319 317 315 315 315 316 317 318 318 317 316 316 315 315 314 314 313 312 311 310 308 309 312 316 318 319 318 316 315 314
313 315 315 316 319 322 322 322 322 321 320 318 317 316 315 315 316 318 319 319 319 318 318 317 317 317 317 315 313 312 310 310 311 315 319 322 322 322 321 320 319 317
311 313 314 316 320 321 321 321 320 319 317 316 315 315 315 316 318 320 320 320 320 319 319 319 319 318 317 316 314 313 313 314 318 319 321 325 328 327 327 327 326 324
Height
5917 5917 5917 5917 5917 5916 5915 5914 5914 5914 5915 5915 5915 5914 5914 5913 5913 5912 5911 5909 5908 5908 5907 5906 5904 5903 5903 5903 5902 5900 5898 5895 5893 5892 5891 5890 5889 5888 5887 5887 5887 5887
5917 5917 5917 5917 5917 5916 5915 5914 5914 5914 5913 5913 5912 5911 5910 5909 5909 5910 5910 5908 5905 5903 5903 5903 5903 5903 5902 5900 5899 5897 5895 5893 5891 5889 5888 5887 5886 5885 5884 5883 5883 5882
5917 5917 5917 5916 5915 5915 5915 5915 5914 5912 5912 5911 5911 5910 5909 5907 5906 5907 5906 5904 5903 5901 5900 5899 5898 5898 5897 5897 5895 5894 5892 5889 5887 5886 5885 5884 5883 5881 5880 5879 5879 5878
5917 5917 5917 5915 5914 5914 5915 5915 5913 5912 5911 5911 5912 5911 5910 5909 5906 5905 5905 5905 5904 5902 5901 5899 5896 5894 5892 5892 5891 5889 5888 5886 5884 5883 5883 5882 5880 5878 5876 5875 5875 5874
5916 5916 5916 5915 5914 5913 5913 5913 5912 5910 5910 5910 5910 5910 5910 5909 5907 5904 5902 5902 5901 5900 5898 5896 5894 5892 5890 5888 5886 5884 5882 5882 5881 5880 5879 5877 5875 5873 5872 5871 5870 5869
5916 5915 5915 5914 5913 5912 5911 5911 5910 5909 5910 5909 5908 5907 5907 5907 5906 5904 5901 5899 5897 5895 5894 5892 5891 5889 5887 5885 5883 5881 5879 5878 5877 5876 5874 5872 5870 5868 5866 5865 5864 5862
5915 5915 5914 5913 5911 5910 5910 5910 5910 5909 5909 5909 5907 5906 5904 5903 5903 5903 5900 5897 5894 5891 5889 5888 5887 5885 5884 5882 5880 5878 5877 5875 5872 5871 5870 5869 5866 5864 5861 5859 5858 5857
5914 5914 5913 5911 5910 5909 5908 5909 5909 5908 5908 5908 5907 5905 5902 5899 5898 5897 5895 5893 5891 5889 5887 5885 5883 5882 5880 5878 5877 5875 5873 5870 5867 5865 5865 5864 5861 5858 5856 5854 5852 5851
5913 5913 5911 5910 5909 5908 5907 5907 5908 5908 5907 5906 5905 5904 5901 5898 5895 5893 5891 5890 5888 5887 5884 5882 5880 5878 5876 5874 5873 5870 5868 5865 5862 5859 5857 5856 5853 5851 5849 5847 5845 5845
5912 5911 5910 5909 5908 5907 5906 5905 5906 5906 5905 5903 5901 5900 5899 5897 5895 5892 5890 5887 5885 5883 5881 5878 5877 5875 5873 5870 5868 5866 5863 5860 5857 5854 5852 5850 5847 5845 5843 5840 5838 5837
5911 5910 5909 5908 5907 5906 5905 5903 5902 5901 5900 5898 5896 5894 5893 5892 5890 5889 5887 5884 5881 5879 5877 5875 5873 5870 5868 5865 5863 5861 5858 5855 5852 5850 5847 5844 5842 5839 5836 5834 5831 5829
5910 5909 5908 5907 5906 5904 5903 5902 5900 5898 5897 5895 5892 5890 5888 5886 5885 5884 5882 5880 5878 5876 5873 5871 5868 5865 5863 5860 5857 5855 5852 5849 5846 5844 5841 5838 5835 5833 5831 5828 5826 5823
5909 5908 5906 5905 5904 5903 5901 5900 5898 5896 5895 5893 5891 5888 5885 5883 5881 5879 5878 5876 5874 5872 5869 5866 5863 5860 5858 5855 5851 5849 5846 5843 5840 5837 5835 5833 5830 5827 5825 5822 5820 5817
5907 5906 5905 5904 5903 5901 5900 5898 5896 5894 5892 5890 5888 5885 5883 5880 5878 5876 5874 5872 5870 5867 5864 5860 5857 5855 5852 5849 5846 5843 5840 5837 5834 5832 5829 5827 5824 5821 5818 5815 5812 5809
5905 5904 5903 5902 5901 5899 5898 5896 5894 5892 5890 5888 5885 5883 5880 5877 5875 5873 5870 5868 5865 5862 5858 5855 5853 5851 5848 5845 5842 5838 5835 5832 5829 5826 5824 5821 5818 5815 5812 5809 5805 5803
5902 5901 5901 5900 5899 5897 5896 5894 5892 5890 5887 5885 5882 5880 5877 5875 5872 5869 5867 5864 5860 5857 5854 5851 5849 5846 5843 5840 5837 5833 5830 5827 5824 5821 5818 5815 5812 5809 5806 5803 5800 5796
5900 5899 5899 5898 5897 5895 5893 5891 5889 5887 5885 5882 5879 5877 5875 5872 5869 5866 5863 5860 5857 5853 5850 5847 5844 5841 5838 5835 5831 5827 5824 5821 5818 5815 5812 5809 5806 5803 5800 5797 5793 5789
5899 5898 5897 5896 5894 5892 5890 5888 5887 5884 5882 5879 5876 5874 5871 5869 5865 5862 5859 5856 5852 5848 5845 5843 5840 5836 5833 5829 5826 5822 5819 5816 5813 5810 5806 5803 5800 5796 5793 5789 5786 5782
5897 5896 5895 5893 5891 5889 5888 5886 5884 5881 5879 5876 5873 5870 5868 5864 5861 5858 5855 5851 5847 5843 5840 5838 5835 5831 5828 5825 5821 5817 5814 5811 5808 5804 5800 5797 5793 5790 5786 5782 5778 5775
5894 5893 5892 5890 5888 5887 5885 5883 5880 5878 5875 5872 5869 5866 5863 5860 5856 5853 5850 5847 5843 5839 5836 5834 5831 5827 5823 5819 5815 5812 5809 5805 5802 5798 5795 5791 5788 5784 5781 5777 5773 5769
5892 5890 5889 5887 5886 5884 5882 5880 5877 5874 5871 5868 5865 5862 5859 5855 5852 5849 5846 5842 5839 5835 5832 5829 5826 5822 5818 5814 5810 5807 5804 5800 5797 5793 5790 5786 5783 5780 5776 5773 5769 5765
5889 5888 5886 5885 5883 5881 5879 5876 5873 5870 5867 5864 5861 5858 5854 5851 5848 5845 5842 5838 5834 5831 5827 5823 5821 5817 5812 5809 5806 5803 5799 5796 5792 5789 5785 5782 5779 5775 5772 5768 5765 5761
5887 5886 5884 5882 5880 5878 5876 5873 5869 5867 5863 5860 5857 5854 5850 5847 5844 5841 5837 5834 5830 5826 5823 5819 5816 5812 5808 5805 5802 5799 5795 5791 5788 5784 5781 5778 5775 5771 5767 5764 5761 5758
5884 5883 5881 5879 5877 5875 5872 5869 5865 5862 5859 5856 5853 5850 5846 5843 5839 5836 5833 5829 5826 5822 5819 5815 5811 5808 5804 5801 5798 5795 5791 5787 5784 5780 5778 5774 5771 5767 5764 5761 5758 5755
5882 5880 5878 5876 5873 5871 5868 5865 5861 5858 5855 5852 5848 5846 5842 5838 5835 5832 5828 5825 5821 5818 5815 5811 5807 5804 5801 5797 5794 5791 5787 5784 5780 5777 5774 5771 5768 5764 5760 5757 5755 5751
5879 5877 5875 5872 5870 5867 5864 5861 5857 5854 5851 5848 5844 5841 5838 5834 5831 5828 5824 5821 5818 5814 5811 5807 5803 5800 5797 5794 5790 5787 5783 5780 5777 5774 5771 5768 5765 5762 5758 5755 5752 5749